GFSFLT1_con_3kmhel_147.txt.gz
Helicity
131 132 124 103 100 104 99 94 105 94 74 45 15 15 31 37 54 81 90 94 111 80 70 74 65 67 97 127 157 166 191 152
128 96 119 111 105 113 113 115 89 59 51 4 -11 -2 1 18 28 49 77 54 58 50 38 34 21 33 52 97 100 132 139 204
115 121 113 114 110 113 111 110 88 57 27 -14 -27 -11 -0 18 21 38 51 52 63 81 97 80 54 26 37 53 105 128 126 176
152 124 123 131 100 103 116 132 116 85 58 14 12 18 19 1 -2 -23 -12 -1 33 78 115 121 121 105 50 44 51 101 120 141
144 142 154 147 121 124 145 165 154 107 74 39 49 30 10 24 30 14 -4 -32 22 106 108 92 77 71 76 75 88 100 119 132
148 186 170 166 167 141 148 188 159 112 96 88 75 70 58 55 39 1 -40 -90 8 75 76 59 58 56 62 76 93 99 113 125
165 162 197 234 226 202 209 215 164 123 126 120 98 102 77 63 43 20 -28 -90 -21 37 46 38 27 27 33 32 41 57 89 98
237 166 257 280 269 241 244 224 180 138 149 127 118 89 63 66 46 30 -9 -79 -39 16 35 58 50 43 41 48 55 50 50 63
189 228 295 291 302 279 261 227 181 163 143 143 116 65 41 33 50 52 14 -66 -41 3 31 47 52 51 42 48 37 38 52 45
284 372 352 320 334 280 261 225 187 176 143 113 84 27 31 50 70 70 88 40 -29 -7 33 47 54 32 47 41 35 57 71 85
364 467 376 380 367 284 261 223 195 170 136 78 14 -0 51 72 80 73 75 94 20 -42 10 38 52 37 63 54 32 67 79 91
581 562 515 498 397 326 259 226 200 146 98 34 25 57 68 78 66 50 38 35 24 -43 -49 -0 49 43 40 60 61 90 102 122
691 631 506 422 358 294 249 225 199 128 66 18 50 68 66 68 40 10 5 -4 -11 -8 -34 -53 -67 -22 28 47 73 82 101 133
531 494 440 358 307 278 245 229 187 129 57 10 56 70 65 38 36 19 31 26 -16 -7 3 19 6 -35 -53 -18 24 38 51 107
448 391 350 302 263 264 247 220 170 131 75 13 53 57 51 30 33 15 23 25 17 40 66 53 60 -17 -0 -10 -1 6 11 24
299 308 282 235 230 259 235 200 159 127 54 18 40 52 39 32 14 18 14 17 13 16 33 48 77 19 -9 1 19 50 57 52
249 302 285 213 205 237 220 186 144 106 35 1 49 39 39 31 10 12 22 13 4 21 36 57 55 -1 9 30 8 37 53 65
323 336 292 232 224 250 230 183 139 71 39 41 44 42 52 36 10 -0 -0 -1 -9 -5 29 43 47 15 26 12 24 14 42 59
326 353 314 297 280 278 220 176 130 65 47 41 32 40 43 31 25 13 -3 -28 -32 -33 -24 9 21 22 36 20 2 -20 23 45

GFSFLT1_con_3kmhel_150.txt.gz
Helicity
147 129 137 119 96 86 85 87 94 94 91 64 45 23 16 10 3 18 33 7 -0 -18 -11 8 18 43 49 74 120 109 95 97
156 156 157 135 119 128 117 118 114 103 86 70 42 19 1 -1 7 18 12 -6 -11 -25 -18 8 34 60 64 67 59 97 137 126
179 156 124 101 100 106 129 121 119 94 60 39 19 5 10 14 30 42 46 53 42 7 -6 16 51 78 96 85 77 83 111 142
183 168 126 109 112 110 131 118 118 114 94 47 26 25 34 46 52 35 34 26 9 -11 13 54 69 93 90 93 85 101 120 171
198 176 137 112 97 108 145 130 128 127 95 67 55 31 47 41 49 43 36 23 -11 -24 32 95 97 79 80 73 74 98 103 114
202 170 139 110 104 149 156 154 151 130 106 58 50 78 62 59 39 35 24 21 -54 -53 35 58 63 46 34 41 51 57 60 79
281 222 193 161 162 210 177 171 149 140 117 98 99 88 74 56 30 21 26 15 -41 -20 20 39 35 28 41 47 53 60 61 52
317 272 234 203 231 212 169 176 174 153 139 122 101 93 65 25 -1 8 20 40 1 -39 4 8 15 34 42 43 42 52 65 52
217 242 266 274 250 199 205 186 206 179 148 139 107 79 8 1 18 21 37 41 45 9 -12 -6 21 27 40 38 33 54 63 93
195 260 373 293 280 203 218 240 250 191 154 130 95 36 12 36 18 28 53 38 53 57 -5 -4 13 6 9 42 42 54 70 95
237 362 358 356 328 288 281 271 260 182 147 122 85 25 38 41 34 32 57 51 47 30 20 -24 -27 -3 33 41 41 67 77 84
371 492 435 401 370 336 295 282 240 191 163 133 91 40 55 51 44 39 46 36 37 23 16 12 -23 -33 -13 3 19 66 70 118
472 521 467 435 384 353 303 271 278 217 177 138 95 52 62 57 31 28 38 30 37 24 24 13 12 -4 -44 -13 -15 3 31 90
531 539 457 385 369 347 321 288 272 207 176 140 104 48 63 49 32 28 26 29 35 45 44 27 31 15 -1 -4 -24 -34 -21 9
513 440 363 368 361 324 288 264 241 211 190 144 110 57 48 43 26 15 21 23 30 41 39 23 17 19 22 19 10 5 2 1
328 331 323 324 336 298 261 262 244 209 177 154 99 61 53 50 37 30 28 36 19 29 54 40 10 11 5 -1 5 17 10 6
214 247 289 296 278 248 258 257 228 195 168 138 68 74 80 46 42 39 34 27 30 52 66 51 11 3 35 25 -5 -4 22 32
195 221 278 263 218 243 243 247 222 180 150 97 75 65 65 34 36 50 36 15 29 44 46 52 32 -0 32 32 19 -16 -17 4
175 231 255 246 230 222 263 262 213 176 128 81 56 52 45 41 47 40 26 11 26 26 55 40 -1 27 32 29 27 32 11 -13

GFSFLT1_con_3kmhel_153.txt.gz
Helicity
168 186 172 162 135 124 121 105 91 70 64 73 79 84 58 45 36 47 47 24 12 -29 -38 -37 -29 -2 37 62 67 59 69 71
228 218 217 199 148 115 79 72 69 80 95 90 87 74 49 45 37 36 32 18 11 -8 -20 -19 -18 15 30 47 91 132 125 176
268 236 177 163 125 93 77 82 90 93 92 91 79 55 53 34 34 39 45 38 26 14 2 3 10 42 71 91 111 140 142 146
244 198 174 162 97 70 82 86 101 100 108 86 79 71 65 68 76 77 62 48 22 16 15 37 64 61 70 81 88 100 105 103
281 200 168 146 84 94 101 93 81 92 99 97 86 51 48 37 45 52 32 30 39 28 20 40 47 54 54 56 48 57 50 21
307 195 172 120 101 104 112 114 110 102 113 98 78 71 55 57 61 43 33 25 23 49 5 21 26 48 49 50 55 64 56 45
367 255 205 157 116 125 133 137 128 132 118 104 96 90 83 85 46 18 7 16 10 21 -10 5 14 28 38 56 54 52 51 38
440 290 209 208 103 126 182 157 155 136 129 121 101 95 101 78 18 -2 2 3 3 26 10 -21 10 18 22 30 40 44 38 29
357 217 224 190 181 216 204 185 177 134 148 135 112 112 84 41 17 -2 8 -0 16 28 14 46 5 -18 11 37 38 43 40 27
255 191 195 233 259 254 218 248 213 169 158 139 127 115 94 38 24 13 8 14 18 25 28 49 38 -8 -7 16 30 43 40 49
175 190 255 273 315 284 302 257 245 196 163 155 135 112 77 39 26 22 25 15 19 34 36 34 40 21 -21 -16 -7 20 34 56
171 212 306 349 357 343 298 281 274 213 177 167 134 113 84 53 37 27 24 13 22 35 33 32 39 23 18 5 -36 -47 -20 37
214 346 423 403 370 320 296 299 270 219 177 162 153 127 95 65 54 34 31 35 24 25 19 30 31 28 27 24 -6 -36 -54 -22
294 403 407 408 344 326 325 313 261 205 190 197 188 143 110 75 58 40 41 28 31 21 28 21 28 23 18 28 37 -25 -54 -41
334 393 373 388 351 346 338 284 221 228 237 232 197 139 115 84 45 49 45 32 29 29 36 19 34 33 21 10 13 19 -0 -39
307 391 396 385 374 360 312 268 251 259 259 224 173 131 116 68 47 64 54 46 38 29 52 37 35 37 26 19 15 4 -6 -30
314 350 356 345 363 330 289 272 252 243 226 188 159 144 111 77 85 79 58 46 62 61 68 50 38 32 54 45 23 18 5 -5
263 265 268 341 329 309 278 257 248 223 204 184 161 136 107 104 100 87 79 69 65 70 66 47 42 22 61 47 38 14 27 19
193 203 242 284 303 298 303 273 232 211 197 169 147 118 107 106 100 73 64 73 85 63 58 40 24 37 57 51 47 29 7 8

GFSFLT1_con_3kmhel_159.txt.gz
Helicity
181 159 159 175 206 206 177 140 114 99 94 88 81 76 75 72 77 88 95 88 84 63 53 47 24 -20 -36 6 41 65 66 88
198 185 189 217 230 206 169 142 103 76 70 60 61 63 63 78 91 107 101 87 74 64 49 28 -1 -41 -44 -13 25 47 63 68
241 217 211 198 214 208 176 137 96 66 67 63 59 47 78 97 94 107 102 86 63 39 18 -4 -28 -28 -4 33 41 47 37 57
270 245 219 221 215 182 163 138 117 87 71 68 62 76 82 82 96 89 74 54 48 40 24 6 -5 0 -2 8 21 30 41 43
249 246 232 205 184 210 173 146 98 68 44 43 62 80 79 79 72 56 48 63 49 42 25 22 22 22 17 -16 5 14 32 30
323 303 248 205 232 193 169 119 79 65 67 68 84 79 59 53 61 73 82 71 52 44 43 51 57 36 25 -2 -12 -2 23 37
361 318 290 289 249 221 156 105 86 78 64 78 46 19 49 75 102 104 85 64 49 65 62 58 47 39 25 23 22 5 35 21
471 473 425 363 274 204 154 98 88 68 76 49 6 51 97 113 107 93 83 67 64 78 69 49 34 27 20 17 15 17 27 14
491 523 425 396 332 278 123 97 80 78 61 35 47 96 94 95 97 88 74 76 67 65 53 45 26 21 17 16 17 26 14 4
433 422 459 365 313 193 122 100 89 79 60 73 101 100 97 108 101 85 87 91 71 69 55 41 19 20 15 9 31 27 23 11
299 353 418 332 223 151 135 112 108 108 99 117 124 101 124 122 100 104 108 100 79 74 57 40 21 24 20 15 23 29 24 4
288 316 318 271 187 157 151 177 176 130 130 149 120 137 146 120 112 113 111 100 84 77 61 39 27 27 18 19 23 26 25 12
212 302 264 209 200 235 271 236 172 158 171 139 149 159 139 128 124 117 111 102 77 72 60 49 35 27 22 22 24 27 26 10
131 155 103 152 218 342 275 234 214 199 169 168 174 159 144 136 124 121 113 87 66 66 60 60 50 40 28 18 14 18 20 16
-4 -13 7 119 260 339 295 233 221 218 196 197 187 162 144 132 132 123 100 76 69 67 61 54 49 49 40 18 14 17 14 11
-65 -5 70 181 270 274 280 263 252 222 226 220 191 167 152 145 139 122 114 88 78 72 70 59 52 55 45 30 24 18 24 10
8 3 113 205 281 334 346 274 228 225 239 230 193 178 167 152 153 150 121 109 97 84 81 75 64 51 64 71 36 31 39 27
110 108 160 251 292 370 318 291 253 228 257 222 198 182 180 182 182 168 132 110 92 88 83 80 67 58 64 65 56 33 44 43
159 219 239 257 281 271 334 319 262 264 242 213 194 203 217 213 204 173 135 108 105 91 87 77 65 61 62 62 59 37 38 48

GFSFLT1_con_3kmhel_162.txt.gz
Helicity
247 255 224 209 196 158 158 170 180 167 131 97 81 79 72 63 77 89 93 97 94 88 91 91 75 60 44 27 7 7 13 54
266 251 226 201 183 165 171 168 167 141 116 102 89 85 70 73 82 88 91 96 94 96 92 84 63 36 15 1 -12 5 18 69
263 261 219 188 180 173 177 171 157 132 122 111 101 77 72 74 72 88 101 97 100 102 93 66 39 7 8 24 36 35 19 36
261 265 228 212 200 203 190 183 169 149 124 106 92 76 62 42 69 96 106 96 97 80 54 47 42 34 43 49 50 30 22 30
187 232 231 205 201 202 208 209 189 149 107 88 52 51 66 91 108 115 98 86 77 67 67 63 56 56 58 51 62 34 38 18
220 222 219 216 224 229 233 223 198 152 118 77 62 70 89 109 112 91 67 73 72 78 72 72 70 59 52 51 57 58 21 5
214 206 244 236 247 239 245 233 202 147 105 71 60 68 88 97 78 63 76 74 81 97 92 86 66 53 53 52 37 41 31 21
286 294 275 271 275 303 270 226 181 124 93 93 86 83 87 71 54 78 90 96 104 118 99 72 64 55 44 35 28 28 34 22
259 348 306 322 340 283 245 204 158 122 140 109 96 83 62 50 75 100 114 115 123 108 87 69 61 52 44 34 29 29 32 23
210 265 392 404 340 296 263 209 163 147 135 113 96 92 35 71 100 110 116 123 118 106 77 69 66 56 47 29 27 26 19 29
152 225 302 383 352 313 246 212 131 135 121 123 107 79 78 94 113 128 129 132 119 105 88 76 66 60 48 28 24 25 18 25
98 165 173 315 359 309 279 191 156 146 152 147 117 105 99 126 129 128 135 126 124 112 90 73 70 62 46 33 25 21 19 21
89 166 235 295 434 392 264 181 171 185 215 164 119 132 149 134 131 141 133 130 121 109 82 76 73 57 45 36 32 27 25 25
131 181 307 397 393 308 186 219 263 277 212 169 142 161 154 137 143 139 131 125 113 87 80 85 74 62 54 42 33 34 27 29
141 138 172 198 149 151 206 271 363 291 242 177 173 154 165 164 151 140 135 126 103 80 78 74 67 72 61 45 33 32 31 34
65 54 40 0 -8 83 244 278 276 279 242 210 184 175 200 172 161 151 153 131 102 85 77 73 74 80 80 47 40 35 39 32
37 -14 -53 -59 6 104 217 250 320 304 247 198 198 209 205 192 179 176 162 147 134 115 106 102 98 89 95 84 55 54 55 47
73 53 32 94 119 143 237 316 327 255 233 221 209 216 218 205 190 203 176 155 136 114 113 104 104 98 95 87 77 69 68 66
83 65 84 88 159 248 254 278 267 260 263 252 224 244 223 213 208 190 170 152 129 118 115 96 94 90 84 86 84 77 72 80

GFSFLT1_con_3kmhel_165.txt.gz
Helicity
169 173 215 226 234 189 199 208 222 203 197 159 147 126 117 102 92 83 75 78 87 91 94 91 86 90 89 83 72 49 19 31
156 240 278 303 275 226 226 257 217 201 180 157 138 133 119 108 94 79 83 95 101 104 94 89 94 96 92 83 59 46 32 41
205 254 295 280 280 244 249 245 199 191 188 170 148 140 133 107 83 88 103 102 109 94 93 95 94 80 84 71 67 49 45 53
262 280 285 275 305 263 254 230 212 215 214 196 183 169 126 86 79 80 99 97 100 106 100 88 80 71 84 71 78 66 62 68
289 291 265 290 312 266 244 243 235 229 174 176 157 134 115 122 99 98 88 98 107 98 83 82 79 75 82 76 78 73 76 55
319 351 258 266 308 295 267 265 263 228 197 180 166 150 157 96 88 81 103 103 96 96 83 75 78 79 81 80 74 72 57 51
232 296 264 251 264 287 292 281 279 248 224 191 157 128 95 87 71 78 98 99 84 84 75 82 78 79 81 78 65 65 69 61
254 350 279 290 297 321 331 286 314 267 226 188 151 101 101 82 68 94 102 85 80 99 83 86 87 84 81 71 62 62 59 58
303 381 348 324 387 345 326 315 318 280 235 200 135 134 75 108 85 110 97 105 114 96 88 97 96 91 80 64 61 55 45 43
200 290 341 352 437 381 351 350 340 296 245 172 154 95 119 97 110 94 108 119 103 97 108 106 106 93 75 57 64 61 39 32
137 176 323 372 460 381 297 307 330 289 210 161 110 128 127 127 74 112 116 116 110 118 113 121 111 89 81 73 66 64 41 28
124 143 271 302 332 342 320 329 329 278 186 124 128 172 154 108 99 106 111 113 126 119 121 124 114 96 86 77 73 61 47 37
72 200 311 263 313 402 337 381 323 246 215 172 205 189 152 118 105 108 147 137 125 125 133 135 120 97 83 80 71 57 53 44
51 147 277 381 366 346 346 379 361 304 193 195 235 204 155 130 121 164 135 124 121 137 149 142 120 102 88 72 62 58 52 42
75 102 186 376 393 485 562 460 411 307 240 193 261 206 204 151 153 136 122 123 137 145 135 130 114 107 84 70 64 60 56 51
84 107 188 306 393 466 313 253 269 270 317 320 311 239 200 168 141 127 146 157 155 140 135 127 115 107 100 75 71 71 67 58
55 80 157 144 221 247 146 152 203 287 346 361 299 272 219 178 133 161 175 177 199 203 174 157 140 118 125 126 95 89 88 74
87 103 87 78 44 10 87 198 242 309 336 343 308 277 245 184 155 216 245 242 204 215 192 152 144 128 125 130 121 107 103 97
69 55 44 20 29 49 131 139 243 280 284 288 286 286 251 215 280 264 218 216 210 172 149 131 129 119 128 127 128 113 117 116

GFSFLT1_con_3kmhel_171.txt.gz
Helicity
420 326 200 354 529 474 408 376 414 387 394 408 416 384 347 276 225 173 161 158 160 116 116 119 102 109 106 88 97 98 42 69
363 345 398 639 572 559 495 454 405 464 495 435 483 427 378 300 238 192 177 170 168 155 117 127 143 120 112 104 67 81 61 83
510 500 590 870 815 679 554 454 420 506 417 381 384 398 331 295 252 219 185 180 152 164 135 138 148 134 122 100 73 46 39 44
568 608 752 981 987 826 722 549 464 419 354 358 416 441 414 362 285 237 192 175 164 147 154 154 147 128 107 80 68 55 40 40
591 670 856 967 1112 977 834 720 543 395 312 370 416 394 296 268 248 226 214 176 158 146 149 148 125 112 99 83 67 51 39 55
564 820 1017 961 1155 1173 964 701 539 409 396 446 428 302 277 334 285 263 213 171 141 132 119 127 133 110 89 98 82 74 48 39
635 822 938 1005 1058 1072 1002 707 432 458 552 466 358 331 353 359 284 251 193 158 125 105 111 118 125 115 107 93 82 66 47 42
521 852 881 1104 1000 1072 1061 819 483 519 559 402 366 365 330 273 244 212 165 141 111 106 116 123 114 114 104 103 103 88 52 52
510 851 1010 1020 967 1181 1067 813 605 520 562 447 409 377 304 258 239 183 167 138 108 105 105 110 128 120 122 108 109 102 89 67
523 745 901 900 989 1015 1016 785 653 566 598 553 479 387 335 291 269 254 220 152 125 104 106 135 134 119 139 126 120 120 107 74
478 680 741 677 870 871 845 716 647 631 688 678 537 419 361 313 301 268 222 148 112 136 130 144 125 133 151 134 135 120 118 79
296 447 520 435 631 864 852 779 729 712 663 670 582 424 360 325 293 243 189 154 106 141 153 124 120 132 139 144 130 122 109 93
258 352 514 657 796 828 852 803 776 650 594 631 545 428 335 298 239 177 144 79 150 162 132 130 127 134 145 145 134 110 98 96
229 299 500 671 673 732 808 830 792 665 626 619 464 380 290 244 185 149 104 151 191 164 148 142 138 135 140 130 115 105 92 87
267 316 411 498 580 732 781 753 740 694 577 487 388 309 246 196 164 147 114 149 167 166 167 164 161 166 144 109 101 93 84 89
218 329 359 455 543 616 710 780 777 658 499 370 383 363 303 179 136 137 111 135 130 146 166 183 193 193 157 127 117 97 111 96
217 271 378 404 517 622 683 705 711 632 488 369 358 327 241 100 108 134 155 174 144 160 203 218 201 167 154 172 178 194 176 132
259 323 353 444 536 690 701 739 719 546 433 377 385 292 169 147 117 191 243 258 260 308 306 235 190 169 177 175 183 177 182 160
251 338 418 423 581 648 703 717 632 501 440 493 489 345 209 147 199 304 294 288 320 318 286 226 191 161 171 170 185 179 183 160

GFSFLT1_con_3kmhel_174.txt.gz
Helicity
420 426 522 403 396 484 524 587 594 506 481 480 432 373 330 304 272 270 274 253 215 212 187 159 133 121 112 115 103 112 118 116
444 467 506 448 495 474 511 656 625 625 567 542 475 428 370 316 275 269 277 254 219 198 188 167 147 121 87 100 96 143 192 142
316 439 503 543 651 565 565 632 702 618 578 550 510 444 356 301 299 298 273 256 216 193 178 156 131 108 122 136 116 95 143 178
358 438 582 645 684 692 731 724 735 730 655 676 566 509 418 436 365 338 273 241 224 195 174 151 129 106 116 125 131 112 74 117
405 516 664 708 705 776 762 810 781 725 670 595 604 580 523 431 350 306 275 233 221 192 171 143 126 105 126 116 113 100 56 17
332 511 674 770 845 850 902 881 762 719 591 576 627 571 493 388 355 308 283 243 214 194 166 136 129 122 120 118 112 95 46 48
273 414 584 832 900 949 998 920 779 604 583 557 585 586 490 447 381 307 274 229 209 184 158 137 124 119 120 112 93 74 55 48
160 308 585 795 941 1061 1109 1014 780 718 673 566 557 487 411 355 300 283 264 238 201 164 148 125 129 116 124 124 104 69 54 60
164 321 646 878 1107 1145 1174 1048 802 760 648 510 478 527 481 337 290 223 210 193 168 144 126 134 108 128 131 142 116 78 85 72
90 308 623 811 1065 1147 1194 1131 802 607 535 448 410 455 512 417 334 219 207 215 150 126 115 119 101 82 146 160 127 99 97 69
348 424 638 737 910 1107 1150 943 675 698 521 516 524 428 364 417 310 275 222 186 149 126 128 91 34 190 166 145 132 112 107 93
441 496 571 706 841 983 1035 809 627 508 557 517 594 459 537 465 408 272 230 193 168 129 89 0 186 160 137 147 137 124 132 116
385 416 476 587 657 614 506 461 682 753 690 601 585 678 468 395 319 247 221 212 166 156 10 163 171 156 134 128 122 118 123 127
140 209 331 380 384 434 510 529 550 702 643 633 591 609 543 431 330 267 232 228 157 109 117 172 166 143 132 126 130 124 127 117
160 248 296 392 445 422 505 614 653 663 658 626 585 540 475 405 327 276 274 201 155 8 129 175 147 137 126 129 131 136 132 110
169 210 238 301 370 455 548 570 587 626 635 593 561 515 448 392 343 259 197 159 178 151 171 162 162 153 118 129 134 134 128 119
148 226 225 250 333 398 467 532 585 638 632 583 539 520 462 400 360 184 206 161 121 138 115 148 171 162 146 150 145 143 129 119
206 204 243 292 360 461 522 594 630 578 609 578 510 461 488 396 264 212 104 132 131 151 163 164 174 183 191 188 176 169 156 121
212 250 284 347 407 468 580 622 602 605 576 552 557 436 499 349 270 194 273 228 173 152 168 155 186 187 196 190 199 196 173 144

GFSFLT1_con_3kmhel_177.txt.gz
Helicity
377 468 525 519 489 501 440 455 478 522 585 556 480 396 349 329 291 288 265 250 246 249 248 218 189 161 136 116 107 127 126 148
244 328 462 495 511 571 519 598 559 610 614 693 603 499 453 396 334 274 263 254 264 263 243 217 178 161 122 97 106 118 192 152
230 323 430 534 596 576 581 632 648 628 614 618 634 610 496 401 331 312 275 246 267 276 234 213 184 165 135 108 83 93 164 178
205 324 449 513 536 610 652 731 738 694 691 758 776 664 529 465 413 390 343 249 260 265 245 217 185 145 135 130 95 94 117 203
146 247 384 467 493 598 659 724 780 818 867 784 740 639 574 523 504 419 358 302 252 252 246 220 183 144 131 126 113 111 114 146
183 223 356 471 529 622 678 749 752 805 859 736 672 619 558 563 477 435 361 340 259 267 228 225 194 158 129 124 133 136 147 157
135 192 282 370 497 572 658 745 756 876 851 636 618 592 709 598 499 463 372 324 268 249 204 219 197 165 123 112 130 143 195 194
41 116 251 369 494 611 677 766 808 922 904 591 517 697 653 528 505 430 361 339 289 282 194 199 186 151 121 112 125 135 161 140
75 103 206 474 517 593 727 800 906 974 906 631 534 524 511 439 461 416 348 277 245 248 167 167 171 138 106 123 102 143 145 125
60 39 207 392 571 658 727 821 998 1060 977 805 487 478 454 422 405 400 337 268 226 231 163 146 139 125 129 98 115 148 138 116
138 18 128 420 567 685 693 716 878 1020 1000 778 501 432 555 298 337 344 306 275 223 186 175 170 157 131 143 113 126 151 133 101
207 198 329 506 643 677 708 757 823 883 861 802 613 483 416 366 246 315 304 298 246 185 180 148 136 159 119 123 166 141 127 110
246 251 279 347 420 508 603 674 730 727 790 553 256 400 347 415 286 344 354 379 277 190 180 157 154 132 94 167 163 128 114 113
248 168 203 261 282 347 436 535 566 612 528 382 592 544 449 329 251 308 319 269 251 220 212 155 173 34 139 175 159 132 122 109
141 126 143 169 197 283 300 293 303 355 439 575 470 396 368 407 338 346 303 273 285 220 140 128 128 89 149 160 146 133 130 124
131 143 154 185 243 276 301 280 356 426 483 462 428 399 482 452 425 367 328 291 283 211 136 115 124 96 141 153 142 136 134 116
118 154 153 208 220 263 318 343 466 511 506 502 485 525 526 489 485 433 354 374 287 200 176 112 77 96 114 115 137 138 113 110
93 203 184 197 273 307 322 375 432 422 472 503 528 546 524 510 523 455 425 332 269 214 338 194 71 109 92 104 119 130 122 124
155 195 159 203 269 276 313 371 375 411 437 481 540 546 526 512 481 475 450 286 175 222 143 100 89 108 103 118 138 168 159 140

GFSFLT1_con_3kmhel_180.txt.gz
Helicity
228 252 319 382 386 350 372 407 431 448 413 426 458 467 450 382 327 281 270 260 234 222 233 208 189 209 193 188 178 202 167 180
177 188 256 301 320 391 430 465 483 555 548 542 550 545 534 460 364 292 290 286 251 255 230 224 188 211 192 177 202 210 210 191
228 267 303 313 307 344 430 485 542 593 625 570 585 620 565 465 388 321 315 298 270 251 244 212 202 258 215 174 183 174 167 111
218 274 328 349 298 330 473 533 577 618 674 696 696 644 562 507 448 415 376 334 276 248 233 253 200 231 200 166 152 149 139 128
204 255 290 325 293 321 395 515 576 619 757 777 805 726 639 521 557 502 435 362 320 263 235 229 204 194 211 197 152 131 147 122
148 222 270 322 291 320 396 478 555 612 702 741 805 655 533 585 607 521 470 395 328 277 277 237 265 222 222 183 176 143 131 125
161 80 156 223 252 293 326 448 551 578 674 783 722 701 671 629 540 502 488 452 353 279 274 231 268 196 247 172 189 167 161 162
94 46 -16 76 209 338 368 432 550 623 738 829 786 785 692 586 555 561 509 480 411 313 277 253 271 216 237 166 164 157 156 167
213 156 30 43 216 361 414 427 541 626 694 805 815 807 660 608 552 486 533 497 401 331 284 265 222 201 229 187 125 122 132 134
318 318 149 29 195 405 397 456 464 577 646 726 784 817 689 656 575 559 499 350 315 261 239 235 203 191 172 159 111 129 160 113
269 218 206 40 200 311 352 438 460 580 647 673 773 843 743 658 626 584 389 332 283 252 249 239 192 173 185 193 146 130 138 144
298 246 233 237 321 375 422 466 535 556 622 690 763 778 784 539 566 426 291 255 264 230 222 211 211 225 196 125 153 127 179 145
343 381 308 302 311 330 365 438 487 555 619 687 714 739 797 528 444 329 308 301 215 283 291 320 262 139 215 169 117 149 151 130
173 327 432 306 219 268 322 366 423 476 551 579 599 477 349 236 272 317 297 327 301 307 282 329 201 177 161 188 168 134 133 136
-25 70 131 175 155 216 258 292 330 373 454 470 374 306 380 403 424 297 260 276 282 286 268 236 195 193 154 203 121 140 154 138
-19 2 142 178 247 245 241 254 255 229 282 333 268 317 372 335 403 292 225 279 265 260 216 222 235 244 164 203 107 140 149 148
-26 10 40 180 226 251 297 263 268 246 287 260 328 373 340 325 323 286 319 326 288 243 199 240 248 184 141 93 122 128 129 124
-38 -5 96 202 272 278 279 316 296 262 321 326 342 348 323 312 307 318 359 346 287 262 279 153 199 218 63 65 82 124 132 124
28 24 82 181 247 266 311 299 272 291 276 296 324 324 334 360 369 377 401 406 344 342 267 194 225 212 64 50 95 147 148 125

GFSFLT1_con_3kmhel_183.txt.gz
Helicity
98 110 144 136 168 286 325 399 364 381 432 410 384 367 378 393 388 340 288 263 248 218 187 186 199 172 227 223 204 199 190 186
91 88 114 141 182 258 373 455 419 403 468 499 454 427 461 454 470 406 356 280 245 241 218 205 197 179 180 197 215 229 247 198
109 123 119 174 234 283 316 394 457 455 398 458 506 492 494 510 476 426 391 339 279 247 217 196 198 194 232 188 190 239 257 178
78 124 129 112 152 262 326 402 450 412 370 484 579 536 565 559 447 460 446 389 330 257 236 221 208 179 191 200 178 190 220 181
17 32 54 102 100 210 228 334 411 393 424 475 624 700 671 518 537 526 502 422 374 303 255 220 201 254 148 173 191 196 193 200
37 77 66 75 92 111 162 213 342 381 445 424 563 580 557 606 654 553 500 465 401 370 341 277 312 229 179 179 179 172 187 187
90 130 101 61 37 67 116 199 356 384 399 421 494 557 718 742 661 633 506 503 434 358 373 302 282 321 214 233 199 200 178 183
99 142 154 171 99 27 66 140 253 426 445 416 483 528 698 781 720 602 554 549 507 453 474 351 319 269 256 243 214 233 180 184
165 179 181 168 119 55 43 143 234 399 463 458 481 472 684 696 633 604 561 574 593 539 548 531 269 224 249 211 226 249 240 192
238 347 295 243 230 106 -8 103 236 360 433 476 493 517 596 630 615 619 686 754 733 706 603 422 219 197 233 203 240 207 184 152
300 339 404 291 186 108 2 72 228 376 471 523 475 554 551 605 646 738 821 829 793 617 466 302 179 173 196 224 228 218 188 170
100 251 331 354 341 222 124 148 347 475 460 460 500 540 607 693 687 740 755 781 702 488 433 441 146 178 173 214 235 236 208 111
21 28 146 148 160 336 332 454 487 411 435 512 511 607 617 657 691 672 670 584 408 331 439 501 181 155 157 211 246 160 101 229
-25 32 4 48 41 267 361 252 359 401 419 531 558 570 599 617 533 411 463 496 375 295 319 255 175 140 138 162 223 265 173 236
-48 -59 -28 -8 37 62 187 241 274 329 376 429 468 469 423 271 276 345 394 439 457 405 209 213 183 200 210 201 208 203 267 229
-37 -63 -31 13 37 11 -30 163 277 268 314 326 331 302 263 292 296 343 344 342 245 177 260 224 168 199 205 128 167 181 151 146
-47 -29 -44 6 22 96 76 72 162 275 248 319 306 306 313 269 351 353 269 291 302 203 226 275 220 163 121 193 186 200 150 150
-48 -31 -29 -3 14 150 148 226 260 291 292 282 260 248 221 231 265 292 309 268 239 216 253 261 187 179 165 190 220 184 148 137
15 7 -5 -0 8 133 181 223 181 220 202 212 239 220 197 259 282 239 225 240 263 283 296 276 260 213 180 188 262 175 138 122

GFSFLT1_con_3kmhel_186.txt.gz
Helicity
-1 7 35 52 50 52 72 159 223 223 305 332 355 391 351 394 370 335 329 296 274 258 257 241 216 212 199 199 212 196 188 192
-10 9 42 85 68 55 66 101 249 282 371 436 453 449 427 423 398 376 428 369 315 265 250 240 242 223 186 180 206 200 227 216
100 109 105 87 37 108 90 74 176 297 308 380 321 328 384 454 519 467 457 436 376 346 306 242 242 258 220 199 210 225 220 159
102 104 68 13 -54 41 83 108 195 340 294 339 380 295 368 463 473 515 459 447 450 447 416 317 261 281 250 208 228 235 184 168
96 58 31 46 68 56 42 56 101 301 373 438 409 498 482 443 443 508 543 506 462 456 397 354 304 305 272 228 249 181 171 133
27 52 29 44 94 81 47 54 64 260 376 424 444 428 424 411 465 504 524 550 496 450 444 424 366 336 304 236 261 236 191 121
5 -19 59 162 168 139 148 72 51 249 386 397 393 369 425 492 476 517 613 632 577 445 490 466 448 403 405 325 277 325 224 144
-89 -42 -5 42 189 243 167 158 68 130 296 346 387 390 395 445 581 583 591 668 652 569 520 526 502 474 428 356 357 312 180 91
72 5 24 79 153 268 328 249 125 68 274 324 361 409 440 475 533 581 602 645 594 561 611 568 496 538 462 385 422 474 162 180
117 53 21 17 68 172 218 248 173 49 200 280 336 427 435 501 482 495 560 536 672 648 720 734 535 502 517 426 529 236 191 196
107 88 37 28 29 53 205 178 87 105 82 327 350 393 442 493 503 555 589 673 672 789 869 720 785 654 514 544 453 209 212 231
14 41 18 -7 15 -14 17 163 64 93 154 284 416 383 454 498 522 592 679 748 717 814 871 929 791 615 499 491 273 200 182 187
87 41 23 4 2 -20 -37 50 128 196 206 418 449 506 555 578 566 608 635 653 658 812 856 1006 842 722 528 562 187 198 165 190
-4 3 7 20 -17 3 -7 17 40 89 376 363 490 599 602 597 595 578 549 570 565 650 784 704 612 633 632 339 182 155 173 155
27 -33 -18 -14 15 26 -67 -9 88 100 260 374 428 448 531 526 495 487 432 367 434 487 501 517 529 520 483 352 157 136 137 153
43 -39 -60 -52 13 1 -45 76 140 216 160 304 326 327 371 346 282 256 263 319 363 448 490 450 453 414 261 246 168 102 112 143
49 17 -15 -73 -21 4 -55 37 176 280 427 281 266 236 234 237 249 290 368 392 397 411 362 346 314 201 117 89 105 175 189 198
5 -6 -0 -39 -61 -34 -76 31 122 225 237 208 302 328 261 267 287 319 361 344 358 344 312 249 248 152 97 158 168 137 157 196
-19 -45 -28 -15 -36 -59 -60 46 75 173 216 237 293 208 232 208 200 237 301 323 331 306 292 211 194 93 108 144 112 131 180 191

GFSFLT1_con_3kmhel_189.txt.gz
Helicity
64 68 70 63 55 71 69 86 229 212 195 246 287 342 387 390 385 411 364 367 335 321 302 330 338 291 273 264 257 241 243 258
188 208 157 133 81 72 35 65 133 298 252 279 325 408 432 407 378 403 403 358 370 348 365 394 328 317 286 295 301 314 287 292
151 120 108 136 124 112 55 28 53 287 358 316 316 350 387 446 432 404 466 400 425 388 399 441 363 380 349 335 343 373 342 313
171 127 123 102 57 3 30 74 74 77 319 347 339 329 321 412 486 524 492 446 452 455 391 458 412 429 457 398 356 382 419 281
102 102 85 51 72 133 120 133 195 116 154 309 411 457 436 420 397 480 654 565 527 450 444 501 495 504 530 432 383 381 401 326
73 90 74 67 94 67 125 158 139 196 142 193 392 415 368 350 347 365 491 620 603 535 534 582 588 508 515 473 449 442 421 331
191 108 63 83 47 27 -11 20 117 162 233 126 226 332 327 342 394 432 463 571 620 605 564 604 559 553 594 490 495 439 393 315
126 108 86 30 24 56 71 76 74 120 118 202 152 272 323 351 445 516 528 532 545 581 657 615 677 648 645 585 531 523 400 439
128 100 61 57 53 47 67 89 64 51 87 90 96 199 303 403 394 502 488 533 544 549 656 725 688 758 726 625 543 593 566 466
122 126 105 165 100 91 81 47 52 24 -12 -6 -40 40 183 418 418 452 477 473 510 549 617 733 788 797 723 691 724 517 552 406
121 137 123 135 115 166 136 105 57 32 -1 14 -5 -27 140 412 473 527 434 464 483 550 656 742 721 718 768 713 599 588 520 451
123 87 75 78 104 87 97 74 54 36 48 48 32 15 130 530 518 449 475 527 565 631 656 706 749 732 819 831 644 710 777 662
76 78 73 93 84 57 74 42 56 38 35 -36 62 -1 86 463 544 500 611 678 727 743 779 718 829 923 981 905 645 786 835 763
82 102 89 71 72 65 34 23 60 47 56 97 70 17 128 293 478 618 665 714 733 748 717 723 804 878 699 807 612 963 820 666
66 71 142 158 109 89 -4 -20 24 21 95 115 185 124 198 438 437 503 577 603 627 601 628 610 714 795 789 791 933 849 711 581
50 85 109 70 72 23 3 -30 -14 -8 89 150 129 165 182 329 371 407 433 437 448 445 435 527 626 697 685 656 604 527 471 385
80 64 53 55 35 -3 -18 -29 -22 25 97 190 200 319 213 242 260 266 299 289 306 361 461 567 548 513 469 446 491 410 337 246
54 64 37 25 21 -22 -30 -15 -38 6 80 131 225 276 271 203 221 262 341 384 404 459 520 483 502 472 345 338 320 240 176 102
-47 -40 43 55 42 -15 -11 -25 -24 39 110 89 132 283 354 214 261 293 350 423 479 481 450 461 442 351 277 269 276 158 137 102

GFSFLT1_con_3kmhel_195.txt.gz
Helicity
359 375 361 334 273 162 220 204 207 275 204 177 176 199 257 320 363 377 393 322 319 432 399 410 472 458 462 484 461 413 410 446
399 416 404 350 253 120 -18 70 184 141 144 128 144 156 174 261 327 373 393 348 311 369 447 494 556 527 590 641 629 541 496 542
513 490 381 288 157 84 42 31 11 55 109 133 130 142 160 218 236 279 358 376 356 406 416 524 500 654 662 737 688 657 651 628
436 411 247 156 110 78 83 68 59 109 85 60 124 189 172 186 188 233 277 312 397 455 444 469 531 651 684 765 722 678 723 718
441 327 224 130 68 48 38 39 116 146 97 28 11 51 112 147 188 162 219 350 323 390 477 492 495 548 625 831 764 734 695 791
319 206 136 95 87 31 44 77 105 53 81 87 49 48 85 129 158 146 161 168 213 338 410 419 478 631 615 781 775 697 697 787
192 159 131 151 139 158 152 170 152 152 140 140 119 36 10 29 49 145 150 104 140 155 263 412 452 557 567 622 700 774 713 761
202 170 156 157 179 185 196 199 196 186 153 134 145 135 88 15 72 80 47 119 139 159 175 192 407 492 513 604 678 837 657 749
254 185 170 209 227 184 139 143 148 127 143 132 155 125 151 127 108 115 143 111 99 126 183 229 233 330 511 598 723 777 740 751
215 175 142 137 114 130 164 199 204 206 238 238 214 170 147 139 148 123 130 153 149 93 134 253 276 241 326 519 646 782 767 811
96 61 74 59 102 102 132 127 101 88 87 102 99 117 185 172 121 104 102 124 139 167 154 178 273 337 330 529 748 696 786 852
48 133 144 119 99 107 75 51 39 56 75 69 84 136 210 202 112 62 89 107 157 145 162 170 245 425 389 537 559 760 775 822
147 156 143 89 42 47 35 11 21 42 83 91 90 140 184 157 111 81 82 85 128 115 141 169 203 266 507 561 585 860 789 827
194 155 69 40 80 40 34 16 45 62 67 71 95 151 175 170 111 78 62 83 11 66 116 204 203 512 410 533 834 756 868 850
181 98 81 106 74 42 36 54 69 74 116 74 118 175 175 165 97 58 -31 27 30 104 186 356 411 468 447 628 461 651 954 852
197 183 139 67 34 41 50 85 112 124 152 71 121 147 195 95 -80 -161 30 55 124 158 201 231 228 325 523 656 765 724 935 857
196 147 99 54 76 104 93 89 105 101 150 83 98 106 92 -104 -150 -126 57 126 170 186 223 361 435 456 515 536 715 754 742 714
156 92 70 94 98 103 101 109 70 39 64 116 98 57 -112 -114 -149 96 131 144 214 220 265 358 411 419 514 570 651 664 702 805
82 78 90 114 82 95 67 50 22 -4 76 105 53 -74 -109 -136 42 156 182 184 223 218 268 301 326 331 365 458 566 649 663 538

GFSFLT1_con_3kmhel_201.txt.gz
Helicity
333 415 461 465 409 343 286 217 194 202 182 138 113 84 80 105 126 135 111 129 131 206 270 294 354 359 321 346 339 288 349 377
403 494 527 537 486 449 404 371 296 237 199 140 119 104 97 94 115 116 138 133 130 138 153 227 342 380 382 403 341 350 372 431
413 474 504 482 432 459 467 428 358 263 193 135 104 87 93 97 109 101 90 99 105 125 155 192 220 315 341 378 423 429 444 551
499 508 444 432 406 403 410 343 309 259 218 151 116 100 99 111 120 132 106 127 168 200 185 185 202 232 313 333 386 334 455 639
487 476 433 407 390 356 345 274 216 202 178 162 126 86 63 32 63 84 110 144 181 173 179 181 185 169 109 111 266 338 520 450
425 439 440 428 404 374 310 204 106 50 27 18 -2 -20 -16 -17 27 74 93 144 165 161 162 169 142 134 133 122 121 140 279 316
455 501 445 397 338 297 223 154 126 102 63 24 15 16 8 31 79 120 124 131 135 107 95 129 115 131 160 157 158 155 192 223
458 426 371 354 307 204 144 126 109 72 36 22 22 29 58 72 44 41 82 117 126 109 87 116 166 134 91 151 185 186 202 236
434 401 361 319 223 161 122 82 59 65 61 53 65 83 83 113 130 155 147 145 162 165 199 240 245 221 157 91 74 144 138 180
483 442 317 193 125 104 71 70 76 42 51 69 79 82 115 136 140 121 144 150 152 150 182 248 273 244 195 125 106 68 94 128
491 335 196 130 97 85 105 70 37 39 47 24 43 69 104 133 153 148 150 151 142 160 160 215 225 236 215 153 114 86 135 155
324 231 142 114 137 92 61 61 29 29 18 16 50 88 111 132 157 153 141 148 144 160 182 220 218 196 175 176 151 127 132 161
265 209 169 139 98 86 50 32 34 13 -8 18 47 80 94 110 113 102 75 121 165 190 225 206 162 162 149 161 195 186 154 138
265 227 183 112 72 43 50 28 5 -12 5 23 62 76 82 87 71 49 59 106 151 180 173 171 175 171 165 140 102 132 110 43
275 202 101 67 53 69 40 17 1 15 37 36 58 64 67 54 63 79 100 124 162 166 148 169 184 202 165 181 173 146 135 170
251 188 125 73 121 94 55 31 40 31 32 45 62 57 44 55 77 103 132 157 163 146 45 190 171 194 224 185 151 100 54 57
253 173 132 129 88 61 31 42 31 18 39 58 59 33 63 75 78 101 125 168 154 38 154 156 164 231 162 26 77 52 75 50
218 139 99 70 68 34 47 42 18 31 51 66 42 52 79 87 98 111 137 136 23 19 120 154 175 175 28 73 165 114 116 152
239 157 92 67 43 56 41 28 11 25 64 54 43 61 70 51 62 53 96 11 -1 43 132 135 145 70 68 128 275 374 432 439

GFSFLT1_con_3kmhel_204.txt.gz
Helicity
211 209 224 211 232 270 253 218 193 198 196 191 180 157 98 71 58 60 85 110 122 138 149 147 189 242 242 293 286 326 317 311
251 264 288 314 356 369 333 302 308 275 248 235 209 147 102 76 65 73 76 87 94 111 126 132 184 221 228 254 282 278 351 401
327 368 412 463 452 456 442 407 368 342 299 291 248 223 192 152 112 99 89 90 101 139 142 156 183 210 238 263 272 299 347 404
410 467 467 509 547 495 475 458 452 436 390 332 291 234 190 172 143 115 130 166 170 179 195 214 233 240 252 223 235 250 270 332
459 510 531 511 514 493 451 412 377 346 298 281 255 228 209 141 102 87 102 118 130 154 166 179 201 228 243 220 183 180 198 213
451 444 451 479 448 403 385 376 339 301 275 226 176 137 62 40 56 67 65 74 90 104 125 158 188 201 222 231 239 192 181 197
414 407 436 459 413 388 372 350 295 243 181 120 81 48 24 33 25 20 19 56 92 117 134 141 132 163 204 220 207 216 247 234
485 457 443 410 382 346 291 250 217 164 134 101 62 36 10 -13 -21 -1 43 85 113 137 162 158 164 167 172 170 233 254 219 204
509 431 381 345 303 270 246 203 169 130 97 47 10 -3 -16 -10 15 65 102 119 115 122 163 164 163 170 188 218 282 274 239 217
525 459 399 324 265 220 190 158 117 70 58 39 12 -1 7 10 45 75 96 114 128 124 162 192 182 178 197 249 252 246 266 253
604 500 383 304 245 219 187 136 107 84 49 7 -9 -8 24 68 85 93 113 131 139 134 136 151 162 211 248 234 244 241 243 260
586 425 349 288 248 203 149 120 96 58 32 18 15 32 66 84 98 100 107 125 123 132 112 114 136 163 183 226 206 195 207 226
481 400 349 303 238 177 114 95 79 51 23 23 29 59 80 87 95 99 108 121 105 94 107 133 170 188 196 172 166 193 196 204
518 477 373 286 199 141 116 99 61 41 40 35 55 77 77 80 88 98 87 80 94 106 149 154 157 169 149 154 177 206 187 168
475 431 317 221 164 139 107 58 46 42 45 67 76 70 59 65 79 77 76 83 98 119 130 170 151 138 140 166 152 168 168 172
483 411 278 195 156 96 63 45 50 62 73 75 72 54 54 81 76 70 70 60 76 82 139 147 125 114 135 132 123 137 139 135
452 401 283 178 96 76 58 62 70 70 64 67 52 55 72 80 58 65 60 74 66 73 130 117 92 101 70 60 103 124 19 173
467 374 222 155 123 72 85 68 59 77 71 54 52 71 73 58 59 61 64 93 113 106 113 89 70 82 62 78 77 42 111 230
416 293 189 194 133 123 93 80 87 74 55 64 61 66 72 56 64 65 84 113 113 93 68 70 66 114 77 78 42 43 108 203

GFSFLT1_con_3kmhel_207.txt.gz
Helicity
162 160 95 101 122 128 145 192 192 165 173 202 192 170 157 135 88 72 66 44 63 62 74 57 83 108 137 159 172 221 217 214
205 197 174 166 186 204 218 246 243 272 275 280 271 245 201 169 147 140 120 123 118 108 112 99 119 143 157 170 199 220 241 282
254 235 246 219 241 269 294 325 345 355 338 325 320 282 268 220 198 204 194 179 162 144 155 164 179 177 174 188 214 245 258 292
336 324 313 346 326 324 372 409 445 432 389 382 384 337 300 281 247 187 159 142 143 149 150 146 148 159 179 195 198 206 255 252
400 411 433 472 488 454 462 496 524 513 433 402 360 307 270 209 155 117 106 111 116 111 108 110 120 138 146 154 174 202 229 268
417 469 486 495 469 468 481 489 482 436 383 314 272 244 200 143 102 95 90 88 74 64 75 85 101 118 122 141 162 204 262 289
429 504 518 506 450 435 421 403 376 331 301 256 206 141 101 93 85 84 68 48 45 45 80 92 100 125 150 170 182 188 210 242
476 573 576 553 465 422 368 332 318 273 233 186 134 101 73 70 66 45 24 12 8 30 74 99 125 135 152 174 186 183 179 195
483 595 576 494 423 355 329 296 267 221 185 140 92 71 54 33 18 2 3 19 48 76 100 121 114 125 139 151 181 186 188 216
513 582 534 463 374 320 299 271 231 193 159 111 69 47 44 32 14 22 51 74 94 98 96 104 104 113 127 140 177 178 201 237
504 572 532 446 377 333 287 245 199 164 121 88 88 73 45 30 31 42 75 85 82 89 112 117 118 115 105 118 177 216 226 229
522 566 520 438 398 321 268 223 188 148 114 103 78 55 44 39 67 81 82 83 95 111 116 118 115 115 120 148 195 218 231 215
510 599 569 497 374 314 241 219 180 142 115 86 67 55 55 73 84 81 83 80 96 104 107 99 109 138 135 182 186 181 158 156
524 568 581 419 327 284 253 201 165 132 106 95 80 60 70 77 78 68 76 88 92 92 84 87 107 77 94 136 154 158 156 187
539 546 507 377 312 280 243 200 156 128 114 95 63 68 79 83 85 92 81 85 93 94 101 123 98 80 112 118 124 153 169 174
513 563 454 389 347 307 240 195 148 135 98 68 74 82 92 97 81 72 75 78 72 82 86 99 98 105 112 109 123 140 131 124
512 514 393 341 285 254 221 179 155 105 63 97 92 98 79 66 58 63 80 79 71 72 87 113 102 88 66 71 99 113 105 119
582 427 336 288 242 221 196 167 116 107 100 90 92 68 51 50 64 74 66 69 68 89 117 120 82 77 58 48 58 88 95 101
692 467 279 247 241 260 197 144 138 99 90 89 69 54 36 53 71 71 76 71 79 105 118 85 65 82 17 30 21 75 95 85